Time,TemperatureF,DewpointF,PressureIn,WindDirection,WindDirectionDegrees,WindSpeedMPH,WindSpeedGustMPH,Humidity,HourlyPrecipIn,Conditions,Clouds,dailyrainin,SoftwareType,DateUTC
2013-09-16 00:01:00,77.9,72.0,29.99,WNW,293,0.0,0.0,82,0.00,,,0.00,WUHU216HW,2013-09-16 04:01:00,
2013-09-16 00:02:00,77.9,72.0,29.99,WNW,293,0.0,0.0,82,0.00,,,0.00,WUHU216HW,2013-09-16 04:02:00,
2013-09-16 00:07:00,77.8,72.2,29.98,WNW,293,0.0,0.0,83,0.00,,,0.00,WUHU216HW,2013-09-16 04:07:00,
2013-09-16 00:12:00,77.8,72.2,29.99,WNW,293,0.0,0.0,83,0.00,,,0.00,WUHU216HW,2013-09-16 04:12:00,
2013-09-16 00:17:00,77.8,72.2,29.99,WNW,293,0.0,0.0,83,0.00,,,0.00,WUHU216HW,2013-09-16 04:17:00,
2013-09-16 00:22:00,77.8,72.2,29.99,WNW,293,0.0,0.0,83,0.00,,,0.00,WUHU216HW,2013-09-16 04:22:00,
2013-09-16 00:27:00,77.6,72.0,29.99,WNW,293,0.0,0.0,83,0.00,,,0.00,WUHU216HW,2013-09-16 04:27:00,
2013-09-16 00:32:00,77.4,71.8,29.99,NE,45,0.0,0.0,83,0.00,,,0.00,WUHU216HW,2013-09-16 04:32:00,
2013-09-16 00:37:00,77.4,71.8,29.99,NE,45,0.0,0.0,83,0.00,,,0.00,WUHU216HW,2013-09-16 04:37:00,
2013-09-16 00:42:00,77.2,71.6,29.99,NE,45,0.0,0.0,83,0.00,,,0.00,WUHU216HW,2013-09-16 04:42:00,
2013-09-16 00:47:00,77.2,71.6,29.99,NE,45,0.0,0.0,83,0.00,,,0.00,WUHU216HW,2013-09-16 04:47:00,
2013-09-16 00:52:00,77.2,71.6,29.99,NNW,338,0.0,0.0,83,0.00,,,0.00,WUHU216HW,2013-09-16 04:52:00,
2013-09-16 00:57:00,77.2,72.0,29.99,NNW,338,0.0,0.0,84,0.00,,,0.00,WUHU216HW,2013-09-16 04:57:00,
2013-09-16 01:02:00,77.4,72.2,30.00,North,0,0.0,0.0,84,0.00,,,0.00,WUHU216HW,2013-09-16 05:02:00,
2013-09-16 01:07:00,77.4,72.2,30.00,North,0,0.0,0.0,84,0.00,,,0.00,WUHU216HW,2013-09-16 05:07:00,
2013-09-16 01:12:00,77.4,72.2,30.00,North,0,0.0,0.2,84,0.00,,,0.00,WUHU216HW,2013-09-16 05:12:00,
2013-09-16 01:17:00,77.4,72.2,30.00,ENE,68,0.0,0.2,84,0.00,,,0.00,WUHU216HW,2013-09-16 05:17:00,
2013-09-16 01:22:00,77.4,72.2,30.00,NE,45,0.0,0.0,84,0.00,,,0.00,WUHU216HW,2013-09-16 05:22:00,
2013-09-16 01:27:00,77.4,72.2,30.00,NNE,23,0.0,0.0,84,0.00,,,0.00,WUHU216HW,2013-09-16 05:27:00,
2013-09-16 01:32:00,77.4,72.2,29.99,NNE,23,0.0,0.7,84,0.00,,,0.00,WUHU216HW,2013-09-16 05:32:00,
2013-09-16 01:37:00,77.6,72.4,29.99,NE,45,0.0,1.3,84,0.00,,,0.00,WUHU216HW,2013-09-16 05:37:00,
2013-09-16 01:42:00,77.6,72.4,29.99,ENE,68,0.0,1.3,84,0.00,,,0.00,WUHU216HW,2013-09-16 05:42:00,
2013-09-16 01:47:00,77.6,72.4,29.99,NNE,23,0.0,0.2,84,0.00,,,0.00,WUHU216HW,2013-09-16 05:47:00,
2013-09-16 01:52:00,77.6,72.7,29.99,North,0,0.0,0.2,85,0.00,,,0.00,WUHU216HW,2013-09-16 05:52:00,
2013-09-16 01:57:00,77.6,72.7,29.99,NE,45,0.0,1.1,85,0.00,,,0.00,WUHU216HW,2013-09-16 05:57:00,
2013-09-16 02:02:00,77.8,72.9,30.00,NE,45,0.0,1.1,85,0.00,,,0.00,WUHU216HW,2013-09-16 06:02:00,
2013-09-16 02:07:00,77.8,72.9,29.99,East,90,0.4,0.4,85,0.00,,,0.00,WUHU216HW,2013-09-16 06:07:00,
2013-09-16 02:12:00,77.8,72.9,29.99,NE,45,0.0,0.4,85,0.00,,,0.00,WUHU216HW,2013-09-16 06:12:00,
2013-09-16 02:17:00,77.8,72.9,29.99,ENE,68,0.4,1.1,85,0.00,,,0.00,WUHU216HW,2013-09-16 06:17:00,
2013-09-16 02:22:00,77.8,72.9,29.99,ENE,68,0.0,1.1,85,0.00,,,0.00,WUHU216HW,2013-09-16 06:22:00,
2013-09-16 02:27:00,77.6,72.7,30.00,NE,45,0.0,0.4,85,0.00,,,0.00,WUHU216HW,2013-09-16 06:27:00,
2013-09-16 02:32:00,77.6,72.7,30.00,NNE,23,0.7,0.9,85,0.00,,,0.00,WUHU216HW,2013-09-16 06:32:00,
2013-09-16 02:37:00,77.6,72.7,30.00,NNE,23,0.0,0.9,85,0.00,,,0.00,WUHU216HW,2013-09-16 06:37:00,
2013-09-16 02:42:00,77.4,72.5,30.00,North,0,0.4,1.1,85,0.00,,,0.00,WUHU216HW,2013-09-16 06:42:00,
2013-09-16 02:47:00,77.4,72.5,30.00,East,90,0.0,1.1,85,0.00,,,0.00,WUHU216HW,2013-09-16 06:47:00,
2013-09-16 02:52:00,77.4,72.5,30.00,ESE,113,0.0,1.1,85,0.00,,,0.00,WUHU216HW,2013-09-16 06:52:00,
2013-09-16 02:57:00,77.4,72.5,30.00,NE,45,0.2,0.4,85,0.00,,,0.00,WUHU216HW,2013-09-16 06:57:00,
2013-09-16 03:02:00,77.4,72.5,30.00,West,270,0.4,1.3,85,0.00,,,0.00,WUHU216HW,2013-09-16 07:02:00,
2013-09-16 03:07:00,77.4,72.9,30.00,East,90,0.0,1.3,86,0.00,,,0.00,WUHU216HW,2013-09-16 07:07:00,
2013-09-16 03:12:00,77.4,72.9,29.99,SW,225,0.4,1.1,86,0.00,,,0.00,WUHU216HW,2013-09-16 07:12:00,
2013-09-16 03:17:00,77.4,72.5,29.99,WNW,293,0.0,0.7,85,0.00,,,0.00,WUHU216HW,2013-09-16 07:17:00,
2013-09-16 03:22:00,77.2,72.4,29.99,NNE,23,0.0,0.7,85,0.00,,,0.00,WUHU216HW,2013-09-16 07:22:00,
2013-09-16 03:27:00,77.2,72.4,29.99,North,0,0.2,1.1,85,0.00,,,0.00,WUHU216HW,2013-09-16 07:27:00,
2013-09-16 03:32:00,77.2,72.4,29.98,NE,45,0.0,1.1,85,0.00,,,0.00,WUHU216HW,2013-09-16 07:32:00,
2013-09-16 03:37:00,77.2,72.4,29.98,NNE,23,0.0,0.7,85,0.00,,,0.00,WUHU216HW,2013-09-16 07:37:00,
2013-09-16 03:42:00,77.0,72.2,29.98,SSE,158,0.0,0.4,85,0.00,,,0.00,WUHU216HW,2013-09-16 07:42:00,
2013-09-16 03:47:00,77.0,72.2,29.98,NNW,338,0.0,0.4,85,0.00,,,0.00,WUHU216HW,2013-09-16 07:47:00,
2013-09-16 03:52:00,77.0,72.2,29.98,ESE,113,0.0,0.4,85,0.00,,,0.00,WUHU216HW,2013-09-16 07:52:00,
2013-09-16 03:57:00,76.9,72.0,29.97,NNW,338,0.0,0.4,85,0.00,,,0.00,WUHU216HW,2013-09-16 07:57:00,
2013-09-16 04:02:00,77.0,72.2,29.97,North,0,0.0,0.2,85,0.00,,,0.00,WUHU216HW,2013-09-16 08:02:00,
2013-09-16 04:07:00,76.9,72.0,29.97,East,90,0.0,0.0,85,0.00,,,0.00,WUHU216HW,2013-09-16 08:07:00,
2013-09-16 04:12:00,77.0,72.2,29.97,ESE,113,0.0,0.0,85,0.00,,,0.00,WUHU216HW,2013-09-16 08:12:00,
2013-09-16 04:17:00,76.9,72.0,29.97,ENE,68,0.0,0.0,85,0.00,,,0.00,WUHU216HW,2013-09-16 08:17:00,
2013-09-16 04:22:00,76.9,72.0,29.97,ENE,68,0.2,0.4,85,0.00,,,0.00,WUHU216HW,2013-09-16 08:22:00,
2013-09-16 04:27:00,76.9,72.0,29.97,ESE,113,0.4,0.4,85,0.00,,,0.00,WUHU216HW,2013-09-16 08:27:00,
2013-09-16 04:32:00,76.9,72.0,29.97,ESE,113,0.9,1.1,85,0.00,,,0.00,WUHU216HW,2013-09-16 08:32:00,
2013-09-16 04:37:00,76.7,72.2,29.97,East,90,0.0,1.1,86,0.00,,,0.00,WUHU216HW,2013-09-16 08:37:00,
2013-09-16 04:42:00,76.7,72.2,29.97,SSE,158,0.4,1.3,86,0.00,,,0.00,WUHU216HW,2013-09-16 08:42:00,
2013-09-16 04:47:00,76.7,71.8,29.98,NW,315,0.0,1.3,85,0.00,,,0.00,WUHU216HW,2013-09-16 08:47:00,
2013-09-16 04:52:00,76.7,71.8,29.98,NW,315,0.0,0.9,85,0.00,,,0.00,WUHU216HW,2013-09-16 08:52:00,
2013-09-16 04:57:00,76.7,71.8,29.98,NNE,23,0.0,0.4,85,0.00,,,0.00,WUHU216HW,2013-09-16 08:57:00,
2013-09-16 05:02:00,76.7,71.8,29.98,North,0,0.0,0.4,85,0.00,,,0.00,WUHU216HW,2013-09-16 09:02:00,
2013-09-16 05:07:00,76.7,71.8,29.98,North,0,0.0,0.0,85,0.00,,,0.00,WUHU216HW,2013-09-16 09:07:00,
2013-09-16 05:12:00,76.7,71.8,29.98,North,0,0.0,0.0,85,0.00,,,0.00,WUHU216HW,2013-09-16 09:12:00,
2013-09-16 05:17:00,76.7,71.8,29.98,North,0,0.0,0.0,85,0.00,,,0.00,WUHU216HW,2013-09-16 09:17:00,
2013-09-16 05:22:00,76.5,71.6,29.98,North,0,0.0,0.0,85,0.00,,,0.00,WUHU216HW,2013-09-16 09:22:00,
2013-09-16 05:27:00,76.5,71.6,29.98,North,0,0.0,0.0,85,0.00,,,0.00,WUHU216HW,2013-09-16 09:27:00,
2013-09-16 05:32:00,76.3,71.5,29.98,North,0,0.0,0.0,85,0.00,,,0.00,WUHU216HW,2013-09-16 09:32:00,
2013-09-16 05:37:00,76.3,71.5,29.99,North,0,0.0,0.0,85,0.00,,,0.00,WUHU216HW,2013-09-16 09:37:00,
2013-09-16 05:42:00,76.3,71.5,29.99,North,0,0.0,0.0,85,0.00,,,0.00,WUHU216HW,2013-09-16 09:42:00,
2013-09-16 05:47:00,76.3,71.5,29.98,NNW,338,0.0,0.0,85,0.00,,,0.00,WUHU216HW,2013-09-16 09:47:00,
2013-09-16 05:52:00,76.3,71.8,29.99,North,0,0.0,0.0,86,0.00,,,0.00,WUHU216HW,2013-09-16 09:52:00,
2013-09-16 05:57:00,76.3,71.8,29.99,North,0,0.0,0.0,86,0.00,,,0.00,WUHU216HW,2013-09-16 09:57:00,
2013-09-16 06:02:00,76.3,71.8,29.99,North,0,0.0,0.0,86,0.00,,,0.00,WUHU216HW,2013-09-16 10:02:00,
2013-09-16 06:07:00,76.3,71.8,29.99,North,0,0.0,0.0,86,0.00,,,0.00,WUHU216HW,2013-09-16 10:07:00,
2013-09-16 06:12:00,76.1,71.6,29.99,North,0,0.0,0.0,86,0.00,,,0.00,WUHU216HW,2013-09-16 10:12:00,
2013-09-16 06:17:00,76.1,71.6,29.98,North,0,0.0,0.0,86,0.00,,,0.00,WUHU216HW,2013-09-16 10:17:00,
2013-09-16 06:22:00,76.1,71.6,29.98,NNW,338,0.0,0.0,86,0.00,,,0.00,WUHU216HW,2013-09-16 10:22:00,
2013-09-16 06:27:00,76.1,71.6,29.98,North,0,0.0,0.0,86,0.00,,,0.00,WUHU216HW,2013-09-16 10:27:00,
2013-09-16 06:32:00,76.0,71.2,29.99,North,0,0.0,0.0,85,0.00,,,0.00,WUHU216HW,2013-09-16 10:32:00,
2013-09-16 06:37:00,76.0,71.2,29.99,NE,45,0.0,0.0,85,0.00,,,0.00,WUHU216HW,2013-09-16 10:37:00,
2013-09-16 06:42:00,76.0,71.5,29.99,North,0,0.0,0.4,86,0.00,,,0.00,WUHU216HW,2013-09-16 10:42:00,
2013-09-16 06:47:00,76.0,71.5,29.99,NNW,338,0.0,1.1,86,0.00,,,0.00,WUHU216HW,2013-09-16 10:47:00,
2013-09-16 06:52:00,76.0,71.5,29.99,NNE,23,0.0,1.1,86,0.00,,,0.00,WUHU216HW,2013-09-16 10:52:00,
2013-09-16 06:57:00,76.0,71.5,29.99,North,0,0.0,0.2,86,0.00,,,0.00,WUHU216HW,2013-09-16 10:57:00,
2013-09-16 07:02:00,76.0,71.5,30.00,North,0,0.0,0.2,86,0.00,,,0.00,WUHU216HW,2013-09-16 11:02:00,
2013-09-16 07:07:00,76.0,71.5,30.00,NE,45,0.0,0.0,86,0.00,,,0.00,WUHU216HW,2013-09-16 11:07:00,
2013-09-16 07:12:00,76.0,71.5,30.00,North,0,0.0,1.6,86,0.00,,,0.00,WUHU216HW,2013-09-16 11:12:00,
2013-09-16 07:17:00,76.0,71.5,30.00,NNE,23,0.0,1.6,86,0.00,,,0.00,WUHU216HW,2013-09-16 11:17:00,
2013-09-16 07:22:00,76.0,71.5,30.00,NE,45,0.0,0.7,86,0.00,,,0.00,WUHU216HW,2013-09-16 11:22:00,
2013-09-16 07:27:00,76.0,71.5,30.00,NW,315,0.2,0.7,86,0.00,,,0.00,WUHU216HW,2013-09-16 11:27:00,
2013-09-16 07:32:00,76.0,71.8,30.01,ENE,68,0.0,0.7,87,0.00,,,0.00,WUHU216HW,2013-09-16 11:32:00,
2013-09-16 07:37:00,76.1,72.0,30.02,ESE,113,0.2,0.4,87,0.00,,,0.00,WUHU216HW,2013-09-16 11:37:00,
2013-09-16 07:42:00,76.3,72.2,30.02,NNW,338,0.4,1.8,87,0.00,,,0.00,WUHU216HW,2013-09-16 11:42:00,
2013-09-16 07:47:00,76.3,72.2,30.02,NNE,23,0.0,1.8,87,0.00,,,0.00,WUHU216HW,2013-09-16 11:47:00,
2013-09-16 07:52:00,76.3,72.2,30.02,NNW,338,0.0,2.2,87,0.00,,,0.00,WUHU216HW,2013-09-16 11:52:00,
2013-09-16 07:57:00,76.3,72.2,30.02,North,0,0.0,2.2,87,0.00,,,0.00,WUHU216HW,2013-09-16 11:57:00,
2013-09-16 08:02:00,76.7,72.5,30.02,North,0,0.0,1.8,87,0.00,,,0.00,WUHU216HW,2013-09-16 12:02:00,
2013-09-16 08:07:00,76.7,72.5,30.03,ENE,68,0.0,1.3,87,0.00,,,0.00,WUHU216HW,2013-09-16 12:07:00,
2013-09-16 08:12:00,76.7,72.5,30.03,NNE,23,0.2,1.3,87,0.00,,,0.00,WUHU216HW,2013-09-16 12:12:00,
2013-09-16 08:17:00,77.0,72.9,30.03,NNW,338,0.0,0.4,87,0.00,,,0.00,WUHU216HW,2013-09-16 12:17:00,
2013-09-16 08:22:00,77.0,72.9,30.03,NNW,338,0.2,1.1,87,0.00,,,0.00,WUHU216HW,2013-09-16 12:22:00,
2013-09-16 08:27:00,77.2,72.7,30.03,NE,45,0.0,1.1,86,0.00,,,0.00,WUHU216HW,2013-09-16 12:27:00,
2013-09-16 08:32:00,77.4,72.9,30.03,ENE,68,0.7,1.1,86,0.00,,,0.00,WUHU216HW,2013-09-16 12:32:00,
2013-09-16 08:37:00,77.4,72.9,30.03,NE,45,0.0,1.1,86,0.00,,,0.00,WUHU216HW,2013-09-16 12:37:00,
2013-09-16 08:42:00,77.6,73.1,30.02,NNE,23,0.9,2.2,86,0.00,,,0.00,WUHU216HW,2013-09-16 12:42:00,
2013-09-16 08:47:00,77.6,73.1,30.03,NNW,338,0.4,2.2,86,0.00,,,0.00,WUHU216HW,2013-09-16 12:47:00,
2013-09-16 08:52:00,77.8,73.3,30.02,NNW,338,0.4,1.1,86,0.00,,,0.00,WUHU216HW,2013-09-16 12:52:00,
2013-09-16 08:57:00,78.1,73.6,30.02,East,90,0.0,1.1,86,0.00,,,0.00,WUHU216HW,2013-09-16 12:57:00,
2013-09-16 09:02:00,78.5,73.6,30.02,ESE,113,0.7,2.0,85,0.00,,,0.00,WUHU216HW,2013-09-16 13:02:00,
2013-09-16 09:07:00,78.7,73.8,30.02,SE,135,0.0,2.5,85,0.00,,,0.00,WUHU216HW,2013-09-16 13:07:00,
2013-09-16 09:12:00,79.0,74.2,30.02,ENE,68,0.7,2.5,85,0.00,,,0.00,WUHU216HW,2013-09-16 13:12:00,
2013-09-16 09:17:00,79.2,74.0,30.02,NNE,23,1.1,2.5,84,0.00,,,0.00,WUHU216HW,2013-09-16 13:17:00,
2013-09-16 09:22:00,79.6,74.4,30.02,North,0,0.2,2.5,84,0.00,,,0.00,WUHU216HW,2013-09-16 13:22:00,
2013-09-16 09:27:00,79.9,74.4,30.02,WNW,293,0.0,1.1,83,0.00,,,0.00,WUHU216HW,2013-09-16 13:27:00,
2013-09-16 09:32:00,80.3,74.4,30.02,ESE,113,0.0,1.1,82,0.00,,,0.00,WUHU216HW,2013-09-16 13:32:00,
2013-09-16 09:37:00,80.6,74.7,30.02,ENE,68,0.0,2.0,82,0.00,,,0.00,WUHU216HW,2013-09-16 13:37:00,
2013-09-16 09:42:00,81.0,74.7,30.02,North,0,0.2,2.0,81,0.00,,,0.00,WUHU216HW,2013-09-16 13:42:00,
2013-09-16 09:47:00,81.4,75.1,30.02,ENE,68,0.0,1.6,81,0.00,,,0.00,WUHU216HW,2013-09-16 13:47:00,
2013-09-16 09:52:00,81.9,75.6,30.02,SSW,203,0.7,1.6,81,0.00,,,0.00,WUHU216HW,2013-09-16 13:52:00,
2013-09-16 09:57:00,82.3,75.6,30.02,NNE,23,0.0,2.0,80,0.00,,,0.00,WUHU216HW,2013-09-16 13:57:00,
2013-09-16 10:02:00,82.6,75.5,30.02,NNW,338,0.4,3.1,79,0.00,,,0.00,WUHU216HW,2013-09-16 14:02:00,
2013-09-16 10:07:00,83.0,75.9,30.02,WNW,293,0.9,3.1,79,0.00,,,0.00,WUHU216HW,2013-09-16 14:07:00,
2013-09-16 10:12:00,83.3,75.8,30.02,SE,135,0.4,1.8,78,0.00,,,0.00,WUHU216HW,2013-09-16 14:12:00,
2013-09-16 10:17:00,83.7,75.7,30.02,SSE,158,0.9,1.8,77,0.00,,,0.00,WUHU216HW,2013-09-16 14:17:00,
2013-09-16 10:22:00,84.1,75.7,30.02,ESE,113,1.3,1.8,76,0.00,,,0.00,WUHU216HW,2013-09-16 14:22:00,
2013-09-16 10:27:00,84.6,75.8,30.02,South,180,1.6,2.7,75,0.00,,,0.00,WUHU216HW,2013-09-16 14:27:00,
2013-09-16 10:32:00,85.1,75.5,30.02,East,90,2.5,2.7,73,0.00,,,0.00,WUHU216HW,2013-09-16 14:32:00,
2013-09-16 10:37:00,85.3,75.7,30.01,ESE,113,2.9,2.9,73,0.00,,,0.00,WUHU216HW,2013-09-16 14:37:00,
2013-09-16 10:42:00,85.7,75.7,30.01,NNW,338,0.7,2.9,72,0.00,,,0.00,WUHU216HW,2013-09-16 14:42:00,
2013-09-16 10:47:00,86.0,76.1,30.01,ENE,68,0.4,2.9,72,0.00,,,0.00,WUHU216HW,2013-09-16 14:47:00,
2013-09-16 10:52:00,86.4,75.6,30.01,NNE,23,1.1,3.1,70,0.00,,,0.00,WUHU216HW,2013-09-16 14:52:00,
2013-09-16 10:57:00,86.8,76.3,30.01,NNE,23,0.0,3.1,71,0.00,,,0.00,WUHU216HW,2013-09-16 14:57:00,
2013-09-16 11:02:00,86.9,76.1,30.01,SE,135,1.1,2.0,70,0.00,,,0.00,WUHU216HW,2013-09-16 15:02:00,
2013-09-16 11:07:00,87.5,76.1,30.01,NNW,338,0.4,2.0,69,0.00,,,0.00,WUHU216HW,2013-09-16 15:07:00,
2013-09-16 11:12:00,87.8,76.0,30.01,ESE,113,2.5,2.5,68,0.00,,,0.00,WUHU216HW,2013-09-16 15:12:00,
2013-09-16 11:17:00,88.2,75.9,30.02,South,180,1.1,2.5,67,0.00,,,0.00,WUHU216HW,2013-09-16 15:17:00,
2013-09-16 11:22:00,88.4,75.6,30.02,East,90,0.9,2.9,66,0.00,,,0.00,WUHU216HW,2013-09-16 15:22:00,
2013-09-16 11:27:00,88.7,76.0,30.01,ESE,113,2.9,2.9,66,0.00,,,0.00,WUHU216HW,2013-09-16 15:27:00,
2013-09-16 11:32:00,88.9,76.2,30.02,North,0,0.4,3.6,66,0.00,,,0.00,WUHU216HW,2013-09-16 15:32:00,
2013-09-16 11:37:00,89.5,76.1,30.02,ESE,113,0.2,3.6,65,0.00,,,0.00,WUHU216HW,2013-09-16 15:37:00,
2013-09-16 11:42:00,89.8,76.5,30.02,ESE,113,0.9,1.8,65,0.00,,,0.00,WUHU216HW,2013-09-16 15:42:00,
2013-09-16 11:47:00,90.0,76.1,30.02,North,0,1.1,1.8,64,0.00,,,0.00,WUHU216HW,2013-09-16 15:47:00,
2013-09-16 11:52:00,90.4,76.5,30.01,ESE,113,0.2,1.8,64,0.00,,,0.00,WUHU216HW,2013-09-16 15:52:00,
2013-09-16 11:57:00,90.7,76.9,30.01,East,90,0.4,1.8,64,0.00,,,0.00,WUHU216HW,2013-09-16 15:57:00,
2013-09-16 12:02:00,90.9,76.5,30.01,North,0,0.9,1.8,63,0.00,,,0.00,WUHU216HW,2013-09-16 16:02:00,
2013-09-16 12:07:00,91.1,76.7,30.01,NNE,23,1.6,1.6,63,0.00,,,0.00,WUHU216HW,2013-09-16 16:07:00,
2013-09-16 12:12:00,91.4,76.5,30.00,SSE,158,3.4,3.4,62,0.00,,,0.00,WUHU216HW,2013-09-16 16:12:00,
2013-09-16 12:17:00,92.0,77.0,30.00,ESE,113,1.1,3.4,62,0.00,,,0.00,WUHU216HW,2013-09-16 16:17:00,
2013-09-16 12:22:00,92.5,77.1,30.00,SSE,158,0.9,3.4,61,0.00,,,0.00,WUHU216HW,2013-09-16 16:22:00,
2013-09-16 12:27:00,92.9,77.0,30.00,ESE,113,2.5,2.7,60,0.00,,,0.00,WUHU216HW,2013-09-16 16:27:00,
2013-09-16 12:32:00,93.2,76.9,30.00,North,0,1.1,2.7,59,0.00,,,0.00,WUHU216HW,2013-09-16 16:32:00,
2013-09-16 12:37:00,93.2,76.3,30.00,ESE,113,1.8,3.6,58,0.00,,,0.00,WUHU216HW,2013-09-16 16:37:00,
2013-09-16 12:42:00,93.4,76.4,30.00,NE,45,0.2,3.6,58,0.00,,,0.00,WUHU216HW,2013-09-16 16:42:00,
2013-09-16 12:47:00,93.8,76.2,30.00,SE,135,2.5,3.6,57,0.00,,,0.00,WUHU216HW,2013-09-16 16:47:00,
2013-09-16 12:52:00,94.0,75.3,30.00,South,180,1.8,3.6,55,0.00,,,0.00,WUHU216HW,2013-09-16 16:52:00,
2013-09-16 12:57:00,94.0,75.9,29.99,East,90,1.1,3.4,56,0.00,,,0.00,WUHU216HW,2013-09-16 16:57:00,
2013-09-16 13:02:00,94.3,76.1,29.99,NNE,23,0.4,3.4,56,0.00,,,0.00,WUHU216HW,2013-09-16 17:02:00,
2013-09-16 13:07:00,94.3,75.1,29.98,ESE,113,3.1,3.4,54,0.00,,,0.00,WUHU216HW,2013-09-16 17:07:00,
2013-09-16 13:12:00,94.7,76.5,29.99,East,90,1.6,3.1,56,0.00,,,0.00,WUHU216HW,2013-09-16 17:12:00,
2013-09-16 13:17:00,95.0,76.3,29.98,SSE,158,2.5,3.1,55,0.00,,,0.00,WUHU216HW,2013-09-16 17:17:00,
2013-09-16 13:22:00,95.4,76.2,29.98,ESE,113,1.8,3.4,54,0.00,,,0.00,WUHU216HW,2013-09-16 17:22:00,
2013-09-16 13:27:00,95.4,77.2,29.98,East,90,1.1,3.4,56,0.00,,,0.00,WUHU216HW,2013-09-16 17:27:00,
2013-09-16 13:32:00,95.8,77.0,29.97,East,90,1.1,2.7,55,0.00,,,0.00,WUHU216HW,2013-09-16 17:32:00,
2013-09-16 13:37:00,96.1,77.3,29.97,North,0,1.1,1.8,55,0.00,,,0.00,WUHU216HW,2013-09-16 17:37:00,
2013-09-16 13:42:00,96.5,77.0,29.97,ESE,113,2.0,2.2,54,0.00,,,0.00,WUHU216HW,2013-09-16 17:42:00,
2013-09-16 13:47:00,96.1,76.8,29.97,ENE,68,1.8,3.1,54,0.00,,,0.00,WUHU216HW,2013-09-16 17:47:00,
2013-09-16 13:52:00,95.9,76.6,29.96,East,90,1.6,3.1,54,0.00,,,0.00,WUHU216HW,2013-09-16 17:52:00,
2013-09-16 13:57:00,95.9,76.6,29.96,SE,135,0.7,2.0,54,0.00,,,0.00,WUHU216HW,2013-09-16 17:57:00,
2013-09-16 14:02:00,95.8,76.4,29.96,NE,45,0.7,2.0,54,0.00,,,0.00,WUHU216HW,2013-09-16 18:02:00,
2013-09-16 14:07:00,95.0,75.8,29.96,NE,45,0.2,2.0,54,0.00,,,0.00,WUHU216HW,2013-09-16 18:07:00,
2013-09-16 14:12:00,94.9,76.1,29.96,North,0,1.3,2.2,55,0.00,,,0.00,WUHU216HW,2013-09-16 18:12:00,
2013-09-16 14:17:00,94.5,76.3,29.96,NNE,23,1.6,2.2,56,0.00,,,0.00,WUHU216HW,2013-09-16 18:17:00,
2013-09-16 14:22:00,94.9,76.7,29.96,SE,135,0.9,4.3,56,0.00,,,0.00,WUHU216HW,2013-09-16 18:22:00,
2013-09-16 14:27:00,95.6,76.8,29.96,SSE,158,1.6,4.3,55,0.00,,,0.00,WUHU216HW,2013-09-16 18:27:00,
2013-09-16 14:32:00,95.9,76.1,29.96,ENE,68,1.8,3.4,53,0.00,,,0.00,WUHU216HW,2013-09-16 18:32:00,
2013-09-16 14:37:00,95.2,76.0,29.97,South,180,0.9,3.4,54,0.00,,,0.00,WUHU216HW,2013-09-16 18:37:00,
2013-09-16 14:42:00,94.7,76.0,29.96,SE,135,0.4,3.1,55,0.00,,,0.00,WUHU216HW,2013-09-16 18:42:00,
2013-09-16 14:47:00,95.0,76.3,29.96,WNW,293,0.2,2.2,55,0.00,,,0.00,WUHU216HW,2013-09-16 18:47:00,
2013-09-16 14:52:00,95.6,76.2,29.95,SSW,203,4.3,4.3,54,0.00,,,0.00,WUHU216HW,2013-09-16 18:52:00,
2013-09-16 14:57:00,95.9,76.1,29.96,ESE,113,2.5,4.3,53,0.00,,,0.00,WUHU216HW,2013-09-16 18:57:00,
2013-09-16 15:02:00,95.8,75.9,29.95,NE,45,2.5,3.8,53,0.00,,,0.00,WUHU216HW,2013-09-16 19:02:00,
2013-09-16 15:07:00,95.8,75.3,29.95,SSE,158,0.7,3.8,52,0.00,,,0.00,WUHU216HW,2013-09-16 19:07:00,
2013-09-16 15:12:00,96.3,75.9,29.95,WNW,293,0.4,3.4,52,0.00,,,0.00,WUHU216HW,2013-09-16 19:12:00,
2013-09-16 15:17:00,96.8,76.3,29.95,ESE,113,0.4,2.9,52,0.00,,,0.00,WUHU216HW,2013-09-16 19:17:00,
2013-09-16 15:22:00,97.0,76.5,29.95,SW,225,0.9,2.5,52,0.00,,,0.00,WUHU216HW,2013-09-16 19:22:00,
2013-09-16 15:27:00,97.4,75.7,29.94,ENE,68,1.1,2.9,50,0.00,,,0.00,WUHU216HW,2013-09-16 19:27:00,
2013-09-16 15:32:00,97.6,74.5,29.94,SSE,158,1.8,3.4,48,0.00,,,0.00,WUHU216HW,2013-09-16 19:32:00,
2013-09-16 15:37:00,97.2,75.6,29.94,NNW,338,0.0,3.4,50,0.00,,,0.00,WUHU216HW,2013-09-16 19:37:00,
2013-09-16 15:42:00,97.6,75.9,29.94,South,180,2.5,2.7,50,0.00,,,0.00,WUHU216HW,2013-09-16 19:42:00,
2013-09-16 15:47:00,97.6,75.9,29.94,ESE,113,3.1,3.1,50,0.00,,,0.00,WUHU216HW,2013-09-16 19:47:00,
2013-09-16 15:52:00,97.6,76.4,29.94,East,90,2.5,3.1,51,0.00,,,0.00,WUHU216HW,2013-09-16 19:52:00,
2013-09-16 15:57:00,98.1,76.4,29.93,ESE,113,1.1,3.1,50,0.00,,,0.00,WUHU216HW,2013-09-16 19:57:00,
2013-09-16 16:02:00,97.7,76.1,29.93,East,90,0.7,2.2,50,0.00,,,0.00,WUHU216HW,2013-09-16 20:02:00,
2013-09-16 16:07:00,96.8,75.2,29.93,SSW,203,0.2,2.2,50,0.00,,,0.00,WUHU216HW,2013-09-16 20:07:00,
2013-09-16 16:12:00,95.6,74.6,29.93,NNW,338,1.1,1.8,51,0.00,,,0.00,WUHU216HW,2013-09-16 20:12:00,
2013-09-16 16:17:00,94.7,74.3,29.93,ENE,68,1.1,1.8,52,0.00,,,0.00,WUHU216HW,2013-09-16 20:17:00,
2013-09-16 16:22:00,94.3,74.0,29.94,SSE,158,6.0,6.0,52,0.00,,,0.00,WUHU216HW,2013-09-16 20:22:00,
2013-09-16 16:27:00,91.8,73.3,29.95,South,180,1.6,7.6,55,0.00,,,0.00,WUHU216HW,2013-09-16 20:27:00,
2013-09-16 16:32:00,89.3,73.1,29.96,NW,315,2.5,7.6,59,0.00,,,0.00,WUHU216HW,2013-09-16 20:32:00,
2013-09-16 16:37:00,87.3,72.7,29.96,SE,135,1.8,7.2,62,0.00,,,0.00,WUHU216HW,2013-09-16 20:37:00,
2013-09-16 16:42:00,85.9,74.6,29.96,SE,135,2.9,7.6,69,0.02,,,0.01,WUHU216HW,2013-09-16 20:42:00,
2013-09-16 16:47:00,83.3,74.2,29.95,SSE,158,5.4,7.6,74,0.11,,,0.11,WUHU216HW,2013-09-16 20:47:00,
2013-09-16 16:52:00,81.4,73.5,29.93,SSE,158,4.7,6.5,77,0.23,,,0.23,WUHU216HW,2013-09-16 20:52:00,
2013-09-16 16:57:00,80.1,73.1,29.93,SSE,158,3.6,7.4,79,0.26,,,0.26,WUHU216HW,2013-09-16 20:57:00,
2013-09-16 17:02:00,79.6,72.6,29.94,SSE,158,2.5,7.4,79,0.28,,,0.27,WUHU216HW,2013-09-16 21:02:00,
2013-09-16 17:07:00,79.4,72.7,29.95,South,180,1.1,5.1,80,0.28,,,0.27,WUHU216HW,2013-09-16 21:07:00,
2013-09-16 17:12:00,79.6,72.6,29.96,SSE,158,0.7,3.4,79,0.28,,,0.27,WUHU216HW,2013-09-16 21:12:00,
2013-09-16 17:17:00,79.6,72.6,29.97,SSE,158,0.0,2.2,79,0.28,,,0.27,WUHU216HW,2013-09-16 21:17:00,
2013-09-16 17:22:00,79.7,72.7,29.97,West,270,0.0,2.5,79,0.28,,,0.27,WUHU216HW,2013-09-16 21:22:00,
2013-09-16 17:27:00,79.9,72.9,29.97,West,270,0.0,2.5,79,0.28,,,0.27,WUHU216HW,2013-09-16 21:27:00,
2013-09-16 17:32:00,79.9,72.9,29.97,West,270,0.0,0.0,79,0.28,,,0.27,WUHU216HW,2013-09-16 21:32:00,
2013-09-16 17:37:00,80.3,73.3,29.97,West,270,0.0,0.0,79,0.28,,,0.27,WUHU216HW,2013-09-16 21:37:00,
2013-09-16 17:42:00,80.3,73.3,29.96,West,270,0.0,0.0,79,0.23,,,0.27,WUHU216HW,2013-09-16 21:42:00,
2013-09-16 17:47:00,80.3,73.3,29.96,West,270,0.0,0.0,79,0.15,,,0.27,WUHU216HW,2013-09-16 21:47:00,
2013-09-16 17:52:00,80.5,73.5,29.96,West,270,0.0,0.0,79,0.01,,,0.27,WUHU216HW,2013-09-16 21:52:00,
2013-09-16 17:57:00,80.5,73.5,29.96,West,270,0.0,0.0,79,0.01,,,0.27,WUHU216HW,2013-09-16 21:57:00,
2013-09-16 18:02:00,80.5,73.5,29.96,West,270,0.0,0.0,79,0.00,,,0.27,WUHU216HW,2013-09-16 22:02:00,
2013-09-16 18:07:00,80.3,73.3,29.96,East,90,0.0,0.2,79,0.00,,,0.27,WUHU216HW,2013-09-16 22:07:00,
2013-09-16 18:12:00,80.3,73.3,29.96,East,90,0.0,0.4,79,0.00,,,0.27,WUHU216HW,2013-09-16 22:12:00,
2013-09-16 18:17:00,80.3,73.6,29.96,NNE,23,0.0,0.4,80,0.00,,,0.27,WUHU216HW,2013-09-16 22:17:00,
2013-09-16 18:22:00,80.3,73.6,29.97,NNE,23,0.0,0.0,80,0.00,,,0.27,WUHU216HW,2013-09-16 22:22:00,
2013-09-16 18:27:00,80.3,73.6,29.97,NNE,23,0.0,0.0,80,0.00,,,0.27,WUHU216HW,2013-09-16 22:27:00,
2013-09-16 18:32:00,80.1,73.4,29.96,NNE,23,0.0,0.0,80,0.00,,,0.27,WUHU216HW,2013-09-16 22:32:00,
2013-09-16 18:37:00,80.1,73.4,29.96,NNE,23,0.0,0.0,80,0.00,,,0.27,WUHU216HW,2013-09-16 22:37:00,
2013-09-16 18:42:00,80.1,73.4,29.96,NNE,23,0.0,0.0,80,0.00,,,0.27,WUHU216HW,2013-09-16 22:42:00,
2013-09-16 18:47:00,80.3,73.6,29.96,NNE,23,0.0,0.0,80,0.00,,,0.27,WUHU216HW,2013-09-16 22:47:00,
2013-09-16 18:52:00,80.1,73.8,29.97,NNE,23,0.0,0.0,81,0.00,,,0.27,WUHU216HW,2013-09-16 22:52:00,
2013-09-16 18:57:00,80.1,73.8,29.97,North,0,0.0,0.0,81,0.00,,,0.27,WUHU216HW,2013-09-16 22:57:00,
2013-09-16 19:02:00,80.1,73.8,29.96,North,0,0.0,0.0,81,0.00,,,0.27,WUHU216HW,2013-09-16 23:02:00,
2013-09-16 19:07:00,79.9,73.6,29.97,North,0,0.0,0.0,81,0.00,,,0.27,WUHU216HW,2013-09-16 23:07:00,
2013-09-16 19:12:00,79.9,73.6,29.96,North,0,0.0,0.0,81,0.00,,,0.27,WUHU216HW,2013-09-16 23:12:00,
2013-09-16 19:17:00,79.9,73.6,29.97,North,0,0.0,0.0,81,0.00,,,0.27,WUHU216HW,2013-09-16 23:17:00,
2013-09-16 19:22:00,79.7,73.5,29.97,NW,315,0.0,0.0,81,0.00,,,0.27,WUHU216HW,2013-09-16 23:22:00,
2013-09-16 19:27:00,79.7,73.5,29.96,NW,315,0.0,0.0,81,0.00,,,0.27,WUHU216HW,2013-09-16 23:27:00,
2013-09-16 19:32:00,79.7,73.5,29.96,NW,315,0.0,0.0,81,0.00,,,0.27,WUHU216HW,2013-09-16 23:32:00,
2013-09-16 19:37:00,79.7,73.5,29.96,NW,315,0.0,0.0,81,0.00,,,0.27,WUHU216HW,2013-09-16 23:37:00,
2013-09-16 19:42:00,79.7,73.5,29.96,NW,315,0.0,0.0,81,0.00,,,0.27,WUHU216HW,2013-09-16 23:42:00,
2013-09-16 19:47:00,79.7,73.5,29.96,NW,315,0.0,0.0,81,0.00,,,0.27,WUHU216HW,2013-09-16 23:47:00,
2013-09-16 19:52:00,79.7,73.8,29.95,NW,315,0.0,0.0,82,0.00,,,0.27,WUHU216HW,2013-09-16 23:52:00,
2013-09-16 19:57:00,79.7,73.8,30.02,NW,315,0.0,0.0,82,0.00,,,0.27,WUHU216HW,2013-09-16 23:57:00,
2013-09-16 20:02:00,79.7,73.8,30.02,NNW,338,0.0,0.0,82,0.00,,,0.27,WUHU216HW,2013-09-17 00:02:00,
2013-09-16 20:07:00,79.7,73.8,30.03,NNW,338,0.0,0.0,82,0.00,,,0.27,WUHU216HW,2013-09-17 00:07:00,
2013-09-16 20:12:00,79.6,73.6,30.02,NNW,338,0.0,0.0,82,0.00,,,0.27,WUHU216HW,2013-09-17 00:12:00,
2013-09-16 20:17:00,79.6,73.6,30.02,NNW,338,0.0,0.0,82,0.00,,,0.27,WUHU216HW,2013-09-17 00:17:00,
2013-09-16 20:22:00,79.7,74.2,30.02,NNW,338,0.0,0.0,83,0.00,,,0.27,WUHU216HW,2013-09-17 00:22:00,
2013-09-16 20:27:00,79.6,73.6,30.03,NNW,338,0.0,0.0,82,0.00,,,0.27,WUHU216HW,2013-09-17 00:27:00,
2013-09-16 20:32:00,79.7,73.8,30.03,NNW,338,0.0,0.0,82,0.00,,,0.27,WUHU216HW,2013-09-17 00:32:00,
2013-09-16 20:37:00,79.6,73.6,30.04,NNW,338,0.0,0.0,82,0.00,,,0.27,WUHU216HW,2013-09-17 00:37:00,
2013-09-16 20:42:00,79.6,73.6,30.03,NNW,338,0.0,0.0,82,0.00,,,0.27,WUHU216HW,2013-09-17 00:42:00,
2013-09-16 20:47:00,79.4,73.5,30.04,NNE,23,0.0,0.0,82,0.00,,,0.27,WUHU216HW,2013-09-17 00:47:00,
2013-09-16 20:52:00,79.4,73.5,30.04,North,0,0.0,0.0,82,0.00,,,0.27,WUHU216HW,2013-09-17 00:52:00,
2013-09-16 20:57:00,79.2,73.3,30.05,North,0,0.0,0.0,82,0.00,,,0.27,WUHU216HW,2013-09-17 00:57:00,
2013-09-16 21:02:00,79.0,73.1,30.05,North,0,0.0,0.0,82,0.00,,,0.27,WUHU216HW,2013-09-17 01:02:00,
2013-09-16 21:07:00,79.0,73.5,30.05,North,0,0.0,0.0,83,0.00,,,0.27,WUHU216HW,2013-09-17 01:07:00,
2013-09-16 21:12:00,78.8,73.3,30.05,North,0,0.0,0.0,83,0.00,,,0.27,WUHU216HW,2013-09-17 01:12:00,
2013-09-16 21:17:00,78.8,73.3,30.05,North,0,0.0,0.0,83,0.00,,,0.27,WUHU216HW,2013-09-17 01:17:00,
2013-09-16 21:22:00,79.0,73.5,30.05,North,0,0.0,0.0,83,0.00,,,0.27,WUHU216HW,2013-09-17 01:22:00,
2013-09-16 21:27:00,79.0,73.5,30.05,North,0,0.0,0.0,83,0.00,,,0.27,WUHU216HW,2013-09-17 01:27:00,
2013-09-16 21:32:00,79.0,73.5,30.05,North,0,0.0,0.0,83,0.00,,,0.27,WUHU216HW,2013-09-17 01:32:00,
2013-09-16 21:37:00,78.8,73.3,30.06,North,0,0.0,0.0,83,0.00,,,0.27,WUHU216HW,2013-09-17 01:37:00,
2013-09-16 21:42:00,78.8,73.3,30.06,North,0,0.0,0.0,83,0.00,,,0.27,WUHU216HW,2013-09-17 01:42:00,
2013-09-16 21:47:00,78.7,73.1,30.06,NNE,23,0.0,0.0,83,0.00,,,0.27,WUHU216HW,2013-09-17 01:47:00,
2013-09-16 21:52:00,78.7,73.1,30.06,NNE,23,0.0,0.0,83,0.00,,,0.27,WUHU216HW,2013-09-17 01:52:00,
2013-09-16 21:57:00,78.7,73.1,30.06,NNE,23,0.0,0.0,83,0.00,,,0.27,WUHU216HW,2013-09-17 01:57:00,
2013-09-16 22:02:00,78.5,72.9,30.06,East,90,0.0,0.2,83,0.00,,,0.27,WUHU216HW,2013-09-17 02:02:00,
2013-09-16 22:07:00,78.5,72.9,30.06,NE,45,0.0,0.4,83,0.00,,,0.27,WUHU216HW,2013-09-17 02:07:00,
2013-09-16 22:12:00,78.5,72.9,30.06,NE,45,0.0,0.4,83,0.00,,,0.27,WUHU216HW,2013-09-17 02:12:00,
2013-09-16 22:17:00,78.5,72.9,30.06,North,0,0.0,0.4,83,0.00,,,0.27,WUHU216HW,2013-09-17 02:17:00,
2013-09-16 22:22:00,78.5,72.9,30.06,North,0,0.0,0.4,83,0.00,,,0.27,WUHU216HW,2013-09-17 02:22:00,
2013-09-16 22:27:00,78.5,72.9,30.06,NNW,338,0.0,0.0,83,0.00,,,0.27,WUHU216HW,2013-09-17 02:27:00,
2013-09-16 22:32:00,78.5,72.9,30.06,NNW,338,0.0,0.0,83,0.00,,,0.27,WUHU216HW,2013-09-17 02:32:00,
2013-09-16 22:33:00,78.5,72.9,30.06,NNW,338,0.0,0.0,83,0.00,,,0.27,WUHU216HW,2013-09-17 02:33:00,
2013-09-16 22:37:00,78.5,72.9,30.06,NNW,338,0.0,0.0,83,0.00,,,0.27,WUHU216HW,2013-09-17 02:37:00,
2013-09-16 22:42:00,78.5,72.9,30.06,NNW,338,0.0,0.0,83,0.00,,,0.27,WUHU216HW,2013-09-17 02:42:00,
2013-09-16 22:47:00,78.5,72.9,30.06,NNE,23,0.0,0.0,83,0.00,,,0.00,WUHU216HW,2013-09-17 02:47:00,
2013-09-16 22:52:00,78.5,72.9,30.06,NNE,23,0.0,0.0,83,0.00,,,0.00,WUHU216HW,2013-09-17 02:52:00,
2013-09-16 22:57:00,78.3,72.4,30.05,NNE,23,0.0,0.0,82,0.00,,,0.00,WUHU216HW,2013-09-17 02:57:00,
2013-09-16 23:02:00,78.3,72.7,30.05,North,0,0.0,0.2,83,0.00,,,0.00,WUHU216HW,2013-09-17 03:02:00,
2013-09-16 23:07:00,78.1,72.5,30.05,North,0,0.0,0.2,83,0.00,,,0.00,WUHU216HW,2013-09-17 03:07:00,
2013-09-16 23:12:00,78.1,72.5,30.05,North,0,0.0,0.0,83,0.00,,,0.00,WUHU216HW,2013-09-17 03:12:00,
2013-09-16 23:17:00,78.1,72.5,30.06,NE,45,0.0,0.0,83,0.00,,,0.00,WUHU216HW,2013-09-17 03:17:00,
2013-09-16 23:22:00,78.1,72.5,30.06,SE,135,0.0,0.0,83,0.00,,,0.00,WUHU216HW,2013-09-17 03:22:00,
2013-09-16 23:27:00,77.9,72.4,30.06,SE,135,0.0,0.0,83,0.00,,,0.00,WUHU216HW,2013-09-17 03:27:00,
2013-09-16 23:32:00,77.9,72.4,30.06,SE,135,0.0,0.2,83,0.00,,,0.00,WUHU216HW,2013-09-17 03:32:00,
2013-09-16 23:37:00,77.9,72.4,30.06,ENE,68,0.0,1.1,83,0.00,,,0.00,WUHU216HW,2013-09-17 03:37:00,
2013-09-16 23:42:00,77.9,72.4,30.06,ESE,113,0.0,1.1,83,0.00,,,0.00,WUHU216HW,2013-09-17 03:42:00,
2013-09-16 23:47:00,77.9,72.4,30.06,NNE,23,0.0,0.0,83,0.00,,,0.00,WUHU216HW,2013-09-17 03:47:00,
2013-09-16 23:52:00,77.8,72.2,30.06,North,0,0.0,0.0,83,0.00,,,0.00,WUHU216HW,2013-09-17 03:52:00,
2013-09-16 23:57:00,77.8,72.2,30.06,NNE,23,0.0,0.0,83,0.00,,,0.00,WUHU216HW,2013-09-17 03:57:00,